Content
SEND FEEDBACK

Daily
Averages
Monthly
Summary
Mexico

PUERTO MORELOS, QUINTANA ROO


Home > North America > Mexico > Quintana Roo
Elevation: 20 feet     Latitude: 20 51N     Longitude: 086 52W

WEATHER
 
SELECT A DAY
Number of Records: 163,561;   Date Range: 1/1/95 - 7/9/14
 
SHARE

PRINT THIS DATA

[ ← Previous Day ]
WEATHER ALMANAC - JANUARY 26, 2014
[ Next Day → ]
[ °C ]   °F
Weather ElementAverageHighLow
Temperature68.9 °F80.6 °F (11:47 am)57.2 °F (3:41 am)
Dewpoint63.1 °F66.2 °F (9:43 am)57.2 °F (1:45 am)
Humidity83.1 %100 % (3:41 am)54 % (11:47 am)
Barometer30.01 in30.08 in (9:43 am)29.94 in (2:43 pm)
Wind Speed4.3 mph9.2 mph (12:45 pm)
Weather ElementAverage
Visibility7.3 mi
Wind DirectionSE (140.4 °)

Weather ElementTotal
Precipitation---
Cooling Degree Days3.9 (Base 65)
Growing Degree Days18.9 (Base 50)
Averaged from 23 records on January 26, 2014
WEATHER CONDITIONS BREAKOUT
WIND DIRECTION BREAKOUT
WEATHER BY HOUR - JANUARY 26, 2014
[ °C ]   °F
Local TimeTemperatureDewpointHumidityBarometerVisibilityWind DirectionWind SpeedGust SpeedPrecipitationEventsConditions
1:45 AM59.0 °F57.2 °F94 %30.06 in7.0 miNW (310°)4.6 mphClear
2:45 AM59.0 °F57.2 °F94 %30.01 in7.0 miNW (310°)5.8 mphClear
3:41 AM57.2 °F57.2 °F100 %30.04 in7.0 miNW (310°)4.6 mphClear
4:40 AM57.2 °F57.2 °F100 %30.04 in7.0 miWNW (300°)3.5 mphClear
5:47 AM59.0 °F57.2 °F94 %30.02 in7.0 miCalmClear
6:44 AM57.2 °F57.2 °F100 %30.05 in7.0 miNW (310°)3.5 mphClear
7:44 AM62.6 °F60.8 °F94 %30.06 in8.0 miWNW (300°)4.6 mphClear
8:48 AM71.6 °F64.4 °F78 %30.06 in8.0 miNW (310°)4.6 mphClear
9:43 AM75.2 °F66.2 °F73 %30.08 in8.0 miCalmClear
10:40 AM77.0 °F66.2 °F69 %30.06 in8.0 miEast (90°)4.6 mphScattered Clouds
11:47 AM80.6 °F62.6 °F54 %30.03 in8.0 miEast (100°)4.6 mphScattered Clouds
12:45 PM78.8 °F66.2 °F65 %30.00 in8.0 miENE (70°)9.2 mphScattered Clouds
1:40 PM78.8 °F66.2 °F65 %29.97 in8.0 miSE (130°)9.2 mphScattered Clouds
2:43 PM77.0 °F64.4 °F65 %29.94 in8.0 miESE (110°)8.1 mphScattered Clouds
3:40 PM77.0 °F64.4 °F65 %29.95 in7.0 miESE (110°)9.2 mphScattered Clouds
4:41 PM77.0 °F64.4 °F65 %29.96 in7.0 miEast (100°)6.9 mphScattered Clouds
5:41 PM73.4 °F66.2 °F78 %29.94 in7.0 miESE (120°)5.8 mphPartly Cloudy
6:48 PM69.8 °F66.2 °F88 %29.98 in7.0 miCalmClear
7:42 PM69.8 °F66.2 °F88 %29.99 in7.0 miCalmClear
8:47 PM68.0 °F66.2 °F94 %29.97 in7.0 miSE (130°)3.5 mphClear
9:48 PM68.0 °F66.2 °F94 %29.99 in7.0 miESE (120°)5.8 mphClear
10:47 PM66.2 °F66.2 °F100 %29.99 in7.0 miCalmClear
11:46 PM66.2 °F64.4 °F94 %29.96 in7.0 miCalmClear
Hourly data recorded from MMUN, located miles away from Puerto Morelos, Quintana Roo







STORIES FROM OUR PARTNERS